Location: Unspecified
(37.6100°N, 2.7800°W)
Time: 08:18:37
(UTC+00:00)

Envisat - Pass Details

Date: 24 October 2018
Orbit: 764 x 766 km, 98.2° (Epoch: 20 November)

Event Time Altitude Azimuth Distance (km) Brightness Sun altitude
Rises 19:03:30 0° 163° (SSE) 3,218 6.1 -20.7°
Reaches altitude 10° 19:05:48 10° 162° (SSE) 2,296 5.3 -21.2°
Maximum altitude 19:10:51 81° 76° (ENE) 780 2.8 -22.2°
Drops below altitude 10° 19:15:57 10° 350° (N) 2,310 5.6 -23.2°
Sets 19:18:16 0° 349° (N) 3,240 6.4 -23.6°
